www.pogodaiklimat.ru

Погода и климат >> Архив погоды >> Оман >> Назва


ПОГОДА в Назве

  • Прогноз погоды в Назве
  • Монитор погоды в Назве

АРХИВ ПОГОДЫ в Назве

Время (UTC), дата Ветер
(напр.,м/с)
 
Видим.   Явления Облачность Т
(С)
Тd
(С)
f
(%)
Тe
(С)
Тes
(С)
Комфортность P
(гПа)
Po
(гПа)
Тmin
(С)
Tmax
(С)
R
(мм)
R24
(мм)
S
(см)
18 16.09 ЮВ 1 10 км ясно +32.1 +16.0 38 +35 +35 очень
душно
1005.5 955.8 +36.3
21 16.09 ЮВ 2 10 км ясно +27.4 +19.0 60 +33 +33 очень
душно
1006.0 955.6
00 17.09 ЮВ 2 н/о н/о +25.3 +19.7 71 +31 +31 очень
душно
1004.9 955.1
03 17.09 Ю 2 н/о н/о +25.0 +20.3 75 +31 +31 очень
душно
1006.5 956.7
06 17.09 В 1 н/о н/о +29.5 +20.1 57 +36 +36 очень
душно
1006.1 957.0 +24.6
09 17.09 Ю 2 10 км 3/0
[Cs]
+36.3 +17.5 33 +40 +58 опасность
солнечного
удара
1003.1 954.2
12 17.09 Ю 2 10 км 4/0
[As op Cs]
+38.5 +12.3 21 +38 +42 очень
жарко
1000.0 951.5
15 17.09 ЮЗ 4 10 км 4/0
[As trans]
+36.2 +16.4 31 +39 +39 очень
душно
1001.3 952.4
18 17.09 Ю 1 н/о н/о +33.5 +14.7 32 +35 +35 душно 1002.5 954.1 +39.3
21 17.09 В 3 н/о н/о +29.0 +19.9 58 +35 +35 очень
душно
1003.8 954.7
00 18.09 Ю 1 н/о н/о +26.9 +19.6 64 +33 +33 очень
душно
1004.2 954.8
03 18.09 штиль 0 н/о н/о +27.1 +20.3 66 +33 +33 очень
душно
1005.7 956.2
06 18.09 Ю 2 н/о н/о +31.3 +19.5 50 +37 +37 очень
душно
1005.9 957.1 +25.4
09 18.09 ЮЗ 2 10 км ясно +37.2 +14.5 26 +38 +58 опасность
солнечного
удара
1003.3 954.4
12 18.09 Ю 2 10 км ясно +41.3 +7.4 13 +39 +45 очень
жарко
1000.7 952.5
15 18.09 Ю 5 10 км ясно +37.2 +11.3 21 +36 +36 очень
жарко
1002.9 954.0
18 18.09 ЮВ 4 10 км ясно +34.8 +9.3 21 +33 +33 жарко 1005.8 956.4 +41.4
21 18.09 ЮВ 2 10 км ясно +29.0 +19.1 55 +34 +34 очень
душно
1006.6 956.4
00 19.09 В 1 н/о н/о +27.1 +16.7 53 +31 +31 душно 1005.6 956.1
03 19.09 штиль 0 н/о н/о +26.7 +18.2 60 +31 +31 душно 1007.4 957.8
06 19.09 Ю 2 н/о н/о +32.1 +17.2 41 +36 +36 очень
душно
1007.1 958.3 +25.3
09 19.09 Ю 3 10 км ясно +38.1 +7.9 16 +36 +52 опасность
солнечного
удара
1004.8 955.9
12 19.09 ЮВ 6 н/о н/о +38.8 +6.1 14 +36 +36 очень
жарко
1001.9 954.2
15 19.09 Ю 3 10 км ясно +35.9 +8.7 19 +34 +34 очень
жарко
1004.6 955.4
18 19.09 ЮВ 4 н/о н/о +33.0 +11.8 27 +33 +33 жарко 1005.7 957.0 +39.9
21 19.09 Ю 3 10 км ясно +28.4 +19.6 59 +34 +34 очень
душно
1007.2 956.9
00 20.09 ЮЗ 1 н/о н/о +26.3 +20.7 71 +33 +33 очень
душно
1005.8 956.2
03 20.09 Ю 1 н/о н/о +25.6 +20.9 75 +32 +32 очень
душно
1007.2 957.4
06 20.09 Ю 2 н/о н/о +31.2 +19.7 50 +37 +37 очень
душно
1006.9 958.0 +25.0
09 20.09 ЮВ 3 н/о н/о +36.9 +16.2 29 +39 +39 очень
душно
1003.0 955.1
12 20.09 Ю 5 10 км 1/1 750 м
[Cu hum]
+38.3 +11.4 20 +37 +40 очень
жарко
1001.7 953.0
15 20.09 Ю 4 10 км ясно +35.7 +12.7 25 +36 +36 очень
жарко
1003.2 954.1
18 20.09 ЮЗ 3 н/о н/о +33.9 +11.6 26 +34 +34 очень
жарко
1004.3 955.8 +39.1
21 20.09 штиль 0 н/о н/о +28.7 +13.6 40 +31 +31 жарко 1003.8 954.6
00 21.09 В 1 10 км ясно +26.3 +15.4 51 +29 +29 жарко 1005.2 954.5
03 21.09 ЮЗ 1 н/о н/о +26.1 +18.6 63 +31 +31 очень
душно
1005.9 956.2
06 21.09 Ю 2 н/о н/о +31.8 +17.8 43 +36 +36 очень
душно
1005.3 956.6 +25.2
09 21.09 ЮВ 4 10 км ясно +37.6 +11.6 21 +37 +50 очень
жарко
1002.7 953.9
12 21.09 Ю 4 10 км 1/1 750 м
[Sc]
+39.0 +7.7 15 +37 +40 очень
жарко
1000.3 951.8
15 21.09 ЮЗ 4 10 км ясно +37.4 +6.5 15 +35 +35 очень
жарко
1001.4 952.5
18 21.09 З 1 н/о н/о +34.4 +9.4 22 +33 +33 жарко 1002.4 954.1 +39.9
21 21.09 В 2 н/о н/о +29.9 +14.4 39 +32 +32 жарко 1003.9 954.8
00 22.09 В 1 10 км ясно +27.5 +15.9 49 +31 +31 душно 1005.4 954.9
03 22.09 ЮЗ 1 10 км ясно +26.6 +16.6 54 +30 +31 душно 1007.0 956.3
06 22.09 ЮЗ 2 10 км ясно +33.4 +15.0 33 +35 +48 душно 1006.9 957.3 +25.5
09 22.09 З 2 10 км ясно +37.8 +12.5 22 +37 +56 опасность
солнечного
удара
1003.4 954.6
12 22.09 Ю 3 10 км 4/4 750 м
[Sc]
+39.2 +10.6 18 +38 +41 очень
жарко
1001.3 952.8
15 22.09 ЮЗ 3 10 км ясно +37.7 +10.2 19 +36 +36 очень
жарко
1002.2 953.4
18 22.09 Ю 2 н/о н/о +34.7 +11.2 24 +34 +34 очень
жарко
1003.3 955.0 +39.8
21 22.09 ЮВ 3 9000 м мгла ясно +30.8 +17.2 44 +35 +35 очень
душно
1005.5 955.6
00 23.09 ЮВ 1 н/о н/о +27.9 +16.8 51 +32 +32 душно 1004.6 955.3
03 23.09 ЮЗ 1 н/о н/о +27.2 +17.3 55 +31 +31 душно 1006.8 957.2
06 23.09 З 2 н/о н/о +34.0 +15.8 34 +36 +36 душно 1006.1 957.6 +26.2
09 23.09 Ю 2 10 км 3/0
[Ci fib]
+39.6 +11.7 19 +39 +57 опасность
солнечного
удара
1002.9 954.4
12 23.09 С 2 н/о н/о +40.8 +9.1 15 +39 +39 очень
жарко
999.7 952.4
15 23.09 ЮВ 2 9000 м мгла 4/3 750 м
[Cu hum Ac lent]
+37.8 +11.0 20 +37 +37 очень
жарко
1002.5 953.7

 

Местоположение метеостанции Назва (Оман): широта 22.85 долгота 57.53 высота над уровнем моря 460 м.

В архиве по умолчанию представлена погода в Назве за последнюю неделю. Архивные данные за месяц целиком и за предыдущие месяцы, начиная с января 2011 года, Вы можете получить, выбрав интересующий диапазон дат из раскрывающегося списка и нажав кнопку "Ввод!".


*Определитесь, кто Вы:
робот инопланетянин человек

Внимание! Время в таблицах - всемирное. Для получения местного времени необходимо прибавить поправку, которая равна 4 ч.

Смотрите также архив погоды в соседних городах и на ближайших метеорологических станциях:

Погода в Саике (Оман) (27 км)
Погода в Бахле (Оман) (28 км)
Погода на Эш-Шам (Оман) (51 км)
Погода в Адаме (Оман) (52 км)
Погода в Рустаке (Оман) (62 км)
Погода в Самаиле (Оман) (65 км)
Погода в Аль Мудайби (Оман) (72 км)
Погода в Ибре (Оман) (100 км)
Погода в Эс-Сувейке (Оман) (111 км)
Погода в Сибе (Оман) (112 км)

Пояснения к столбцам:

Ветер - указаны скорость ветра в м/с - средняя за 10 мин, порывы в срок и между сроками (в фигурных скобках) и направление, откуда дует ветер: С - северный, СВ - северо-восточный, В - восточный, ЮВ - юго-восточный, Ю - южный, ЮЗ - юго-западный, З - западный, СЗ - северо-западный.
Видимость - горизонтальная дальность видимости в метрах или километрах. При видимости от 1 до 10 км при отсутствии осадков обычно наблюдается дымка, при ухудшении видимости до 1 км и менее - туман. В сухую погоду видимость может ухудшаться дымом, пылью или мглою.
Явления - указаны атмосферные явления, наблюдавшиеся в срок или в последний час перед сроком; фигурными скобками обозначены явления, наблюдавшиеся между сроками (за 1-3 часа до срока); квадратными скобками обозначены град или гололедные отложения с указанием их диаметра в мм.
Облачность - указаны через наклонную черту общая и нижняя облачность в баллах и высота нижней границы облаков в метрах; квадратными скобками обозначены формы облаков: Ci - перистые, Cs - перисто-слоистые, Cc - перисто-кучевые, Ac - высококучевые, As - высокослоистые, Sc - слоисто-кучевые, Ns - слоисто-дождевые, Cu - кучевые, Cb - кучево-дождевые. Подробнее классификацию облаков см. в Атласе облаков (PDF).
T - Температура воздуха - температура, измеренная на высоте 2 м над землей.
Td - Температура точки росы - температура, при понижении до которой содержащийся в воздухе водяной пар достигнет насыщения.
f - Относительная влажность воздуха - влажноcть воздуха, измеренная на высоте 2 м над землей.
Te - Эффективная температура - температура, которую ощущает одетый по сезону человек в тени. Характеристика душности погоды. При расчете учитывается влияние влажности воздуха и скорости ветра на теплоощущения человека.
Tes - Эффективная температура на солнце - температура, которую ощущает человек, с поправкой на солнечный нагрев. Характеристика знойности погоды. Зависит от высоты солнца над горизонтом, облачности и скорости ветра. Ночью, в пасмурную погоду, а также при ветре 12 м/с и более поправка равна нулю.
P - Атмосферное давление - приведенное к уровню моря атмосферное давление.
Po - Атмосферное давление - измеренное на уровне метеостанции атмосферное давление.
Tmin - Минимальная температура - минимум температуры воздуха на высоте 2 м над землей.
Tmax - Максимальная температура - максимум температуры воздуха на высоте 2 м над землей.
R - Количество осадков - Количество выпавших осадков за период времени, мм. При наведении курсора мыши на число - период времени, за который выпало указанное количество осадков.
R24 - Количество осадков - Количество выпавших осадков за 24 часа, мм.
S - Снежный покров - Высота снежного покрова, см. При наведении курсора мыши на число - состояние снежного покрова и степень покрытия местности в баллах.